Location: Lecco
(45.8566°N, 9.3977°E)
Time: 20:53:31
(UTC+02:00)

Vanguard 1 - Visible Passes

Search period start: 12 June 2021 00:00
Search period end: 22 June 2021 00:00
Orbit: 650 x 3832 km, 34.2° (Epoch: 12 June)

Date Brightness Start Highest point End Pass type
(mag) Time Alt. Az. Time Alt. Az. Time Alt. Az.
12 Jun 11.7 01:55:35 10° WSW 02:11:04 45° S 02:19:49 10° ESE visible
12 Jun 11.3 04:21:15 10° W 04:31:53 36° SSW 04:38:11 10° SE visible
12 Jun 13.2 21:33:14 10° S 21:46:35 20° SE 21:57:15 10° ESE visible
12 Jun 12.4 23:51:57 10° SW 00:09:38 38° SSE 00:20:45 10° E visible
13 Jun 11.6 02:16:38 10° WSW 02:31:57 47° S 02:40:32 10° ESE visible
13 Jun 11.4 04:42:37 10° W 04:52:27 32° SSW 04:58:28 10° SE visible
13 Jun 13.1 21:51:26 10° SSW 22:07:28 26° SSE 22:19:36 10° E visible
14 Jun 12.2 00:12:20 10° SW 00:30:37 43° SSE 00:41:45 10° E visible
14 Jun 11.6 02:37:48 10° WSW 02:52:48 47° S 03:01:10 10° ESE visible
14 Jun 12.9 22:10:29 10° SSW 22:28:22 32° SSE 22:41:19 10° E visible
15 Jun 12.1 00:33:01 10° SW 00:51:37 47° S 01:02:38 10° ESE visible
15 Jun 11.6 02:59:05 10° WSW 03:13:36 45° SSW 03:21:44 10° SE visible
15 Jun 12.8 22:30:07 10° SSW 22:49:19 37° SSE 23:02:42 10° E visible
16 Jun 12.0 00:53:56 10° WSW 01:12:36 50° S 01:23:27 10° ESE visible
16 Jun 11.6 03:20:28 10° W 03:34:18 42° SSW 03:42:11 10° SE visible
16 Jun 12.6 22:50:11 10° SW 23:10:17 43° SSE 23:23:52 10° E visible
17 Jun 12.0 01:15:02 10° WSW 01:33:34 52° S 01:44:11 10° ESE visible
17 Jun 11.7 03:41:54 10° W 03:54:54 37° SSW 04:02:30 10° SE visible
17 Jun 12.5 23:10:37 10° SW 23:31:18 48° SSE 23:44:53 10° E visible
18 Jun 11.9 01:36:16 10° WSW 01:54:30 52° S 02:04:52 10° ESE visible
18 Jun 11.8 04:03:27 10° W 04:15:22 32° SSW 04:22:37 10° SSE visible
18 Jun 12.4 23:31:19 10° WSW 23:52:21 52° S 00:05:49 10° E visible
19 Jun 11.9 01:57:36 10° W 02:15:21 50° SSW 02:25:27 10° ESE visible
19 Jun 12.0 04:25:11 10° W 04:35:41 26° SW 04:42:28 10° SSE visible
19 Jun 13.0 21:28:49 10° SSW 21:49:16 40° SSE 22:05:10 10° E visible
19 Jun 12.4 23:52:15 10° WSW 00:13:24 54° S 00:26:39 10° ESE visible
20 Jun 11.9 02:19:02 10° W 02:36:07 47° SSW 02:45:55 10° SE visible
20 Jun 12.2 04:47:15 10° W 04:55:53 20° SW 05:01:54 10° S visible
20 Jun 12.9 21:48:55 10° SW 22:10:14 46° SSE 22:26:22 10° E visible
21 Jun 12.3 00:13:21 10° WSW 00:34:26 56° S 00:47:27 10° ESE visible
21 Jun 12.0 02:40:31 10° W 02:56:46 42° SSW 03:06:15 10° SE visible
21 Jun 12.8 22:09:21 10° SW 22:31:15 51° SSE 22:47:26 10° E visible
